This demonstration page uses our WeatherBlox Daily Observations layout. Learn more.

Left ArrowRight Arrow

41.12389, -100.76542

Hourly Observations for December 31, 2017

Temp ( °F °C ) Dew Point ( °F °C ) Humidity (%) Winds ( mph kmh ) Pressure ( in mb ) Visibility ( mi km ) Precip ( " mm )
12:41 am 00:41 Cloudy 2 -16.7 -3 -19.4 80 80 E 8 13 30.74 1041 10 16 0.00 0.00
12:53 am 00:53 Cloudy 2 -16.7 -4 -20 76 76 E 7 11 30.61 1037 10 16 0.00 0.00
1:05 am 01:05 Cloudy 2 -16.7 -4 -20 76 76 E 5 7 30.74 1041 10 16 0.00 0.00
1:53 am 01:53 Cloudy 2 -16.7 -4 -20 76 76 E 3 6 30.63 1037 10 16 0.00 0.00
2:53 am 02:53 Mostly Cloudy 1 -17.2 -4 -20 79 79 Calm 30.64 1038 10 16 0.00 0.00
3:53 am 03:53 Cloudy 0 -17.8 -5 -20.6 79 79 NE 7 11 30.67 1039 10 16 0.00 0.00
4:53 am 04:53 Cloudy -2 -18.9 -7 -21.7 79 79 NNE 8 13 30.69 1039 9 14 0.00 0.00
5:15 am 05:15 Cloudy -2 -18.9 -7 -21.7 79 79 NE 8 13 30.83 1044 10 16 0.00 0.00
5:53 am 05:53 Cloudy -2 -18.9 -7 -21.7 79 79 NE 7 11 30.71 1040 10 16 0.00 0.00
6:12 am 06:12 Cloudy -2 -18.9 -7 -21.7 79 79 ENE 5 7 30.86 1045 10 16 0.00 0.00
6:39 am 06:39 Cloudy -2 -18.9 -7 -21.7 79 79 NE 7 11 30.86 1045 10 16 0.00 0.00
6:53 am 06:53 Cloudy -2 -18.9 -7 -21.7 79 79 E 6 9 30.73 1041 10 16 0.00 0.00
7:14 am 07:14 Cloudy -2 -18.9 -8 -22.2 75 75 NE 6 9 30.89 1046 10 16 0.00 0.00
7:53 am 07:53 Cloudy -2 -18.9 -8 -22.2 75 75 ENE 7 11 30.77 1042 10 16 0.00 0.00
8:53 am 08:53 Cloudy -3 -19.4 -9 -22.8 75 75 NNE 6 9 30.80 1043 10 16 0.00 0.00
9:53 am 09:53 Cloudy with Haze -3 -19.4 -10 -23.3 71 71 NNE 12 19 30.83 1044 5 8 0.00 0.00
10:53 am 10:53 Cloudy -2 -18.9 -10 -23.3 68 68 NNE 5 7 30.85 1045 10 16 0.00 0.00
11:53 am 11:53 Cloudy -2 -18.9 -10 -23.3 68 68 ENE 7 11 30.86 1045 10 16 0.00 0.00
12:53 pm 12:53 Sunny 0 -17.8 -9 -22.8 65 65 NNE 5 7 30.83 1044 10 16 0.00 0.00
1:53 pm 13:53 Sunny 1 -17.2 -9 -22.8 62 62 ENE 5 7 30.81 1044 10 16 0.00 0.00
2:53 pm 14:53 Mostly Cloudy 2 -16.7 -8 -22.2 63 63 NE 7 11 30.80 1043 10 16 0.00 0.00
3:53 pm 15:53 Cloudy 1 -17.2 -9 -22.8 62 62 NE 3 6 30.82 1044 10 16 0.00 0.00
4:53 pm 16:53 Cloudy 1 -17.2 -8 -22.2 65 65 NNE 3 6 30.83 1044 10 16 0.00 0.00
5:53 pm 17:53 Cloudy 1 -17.2 -8 -22.2 65 65 Calm 30.83 1044 10 16 0.00 0.00
6:53 pm 18:53 Mostly Cloudy -2 -18.9 -8 -22.2 75 75 E 3 6 30.87 1045 10 16 0.00 0.00
7:53 pm 19:53 Cloudy -1 -18.3 -8 -22.2 72 72 ENE 3 6 30.87 1045 10 16 0.00 0.00
8:53 pm 20:53 Cloudy -2 -18.9 -8 -22.2 75 75 NE 5 7 30.87 1045 10 16 0.00 0.00
9:53 pm 21:53 Cloudy -1 -18.3 -8 -22.2 72 72 ENE 3 6 30.87 1045 10 16 0.00 0.00
10:53 pm 22:53 Cloudy -1 -18.3 -8 -22.2 72 72 E 6 9 30.88 1046 10 16 0.00 0.00
11:53 pm 23:53 Cloudy -1 -18.3 -8 -22.2 72 72 ESE 5 7 30.89 1046 10 16 0.00 0.00

Powered by AerisWeather